Location: Binningen
(47.7924°N, 8.7261°E)
Time: 17:48:43
(UTC+00:00)

Nadezhda 1 Rocket - Pass Details

Date: 17 May 2021
Orbit: 940 x 1006 km, 83.0° (Epoch: 21 June)

Event Time Altitude Azimuth Distance (km) Brightness Sun altitude
Exits shadow 20:14:53 - 168° (SSE) 2,929 6.0 -10.8°
Reaches altitude 10° 20:15:25 10° 167° (SSE) 2,736 5.8 -10.8°
Maximum altitude 20:21:29 55° 92° (E) 1,166 4.2 -11.5°
Drops below altitude 10° 20:27:30 10° 17° (NNE) 2,710 6.8 -12.2°
Sets 20:30:02 0° 13° (NNE) 3,651 7.5 -12.5°
